Flag for U.S.A. Weather past 2 weeks in Fort Collins, Colorado, U.S.A.

Now
27 °F

Passing clouds.


Feels Like: 27 °F
Forecast: 24 / 46 °F
Wind: No wind

Location: Fort Collins-Loveland Municipal Airport

Current Time: Dec 20, 2014 at 7:51:12 AM

Latest Report: Dec 20, 2014 at 7:15 AM


Visibility: 10 mi

Pressure: 30.00 "Hg

Humidity: 74%

Dew point: 19 °F

Location of Fort CollinsLocation

Historic Weather in Fort Collins — Graph

°F

Fort Collins temperature yesterday

Maximum temperature yesterday: 48 °F (at 2:15 PM)
Minimum temperature yesterday: 19 °F (at 2:55 AM)
Average temperature yesterday: 31 °F

Past Weeks' High & Low Weather Summary

 TemperatureHumidityPressure
High61 °F (Dec 11, 2:55 PM)100% (Dec 19, 2:35 AM)30.38 "Hg (Dec 19, 2:35 AM)
Low16 °F (Dec 16, 5:35 AM)20% (Dec 10, 2:35 PM)29.70 "Hg (Dec 14, 4:15 AM)
Average35 °F62%30.09 "Hg
* Reported Dec 5 6:15 AM — Dec 20 6:35 AM, Fort Collins, Weather by CustomWeather, © 2014

Note: Actual official high and low records may vary slightly from our data, if they occured in-between our weather recording intervals... More about our weather records

Advertising

Fort Collins weather history for previous 24 hours

 ConditionsComfort  
Time TempWeatherWind HumidityBarometerVisibility
6:35 AM
Dec 20
25 °FClear.3 mph80%29.99 "Hg10 mi
6:15 AM25 °FClear.No wind74%30.00 "Hg10 mi
5:55 AM27 °FClear.No wind74%29.99 "Hg10 mi
5:35 AM25 °FClear.No wind74%29.99 "Hg10 mi
5:15 AM23 °FClear.5 mph80%29.99 "Hg10 mi
4:55 AM23 °FClear.No wind74%30.00 "Hg10 mi
4:35 AM21 °FClear.No wind68%29.99 "Hg10 mi
4:15 AM23 °FClear.No wind74%30.00 "Hg10 mi
3:55 AM21 °FClear.No wind80%30.00 "Hg10 mi
3:35 AM19 °FClear.5 mph73%30.01 "Hg10 mi
3:15 AM19 °FClear.7 mph68%30.01 "Hg10 mi
2:55 AM25 °FClear.No wind69%30.00 "Hg10 mi
2:35 AM19 °FClear.No wind68%30.01 "Hg10 mi
2:15 AM27 °FClear.No wind69%30.00 "Hg10 mi
1:55 AM25 °FClear.No wind69%30.00 "Hg10 mi
1:35 AM23 °FClear.No wind74%30.01 "Hg10 mi
1:15 AM25 °FClear.No wind69%30.01 "Hg10 mi
12:55 AM27 °FClear.6 mph69%30.01 "Hg10 mi
12:35 AM27 °FClear.No wind69%30.00 "Hg10 mi
12:15 AM27 °FClear.No wind69%30.01 "Hg10 mi
11:55 PM
Dec 19
27 °FClear.No wind69%30.01 "Hg10 mi
11:35 PM27 °FClear.No wind59%30.01 "Hg10 mi
11:15 PM27 °FClear.No wind59%30.02 "Hg10 mi
10:55 PM28 °FClear.No wind59%30.02 "Hg10 mi
10:35 PM28 °FClear.No wind59%30.02 "Hg10 mi
10:15 PM28 °FClear.No wind64%30.02 "Hg10 mi
9:55 PM28 °FClear.8 mph64%30.01 "Hg10 mi
9:35 PM25 °FClear.3 mph59%30.01 "Hg10 mi
9:15 PM28 °FClear.No wind59%30.00 "Hg10 mi
8:55 PM30 °FClear.No wind55%30.01 "Hg10 mi
8:35 PM30 °FClear.3 mph55%30.01 "Hg10 mi
7:55 PM32 °FClear.5 mph51%30.03 "Hg10 mi
7:35 PM32 °FClear.3 mph51%30.03 "Hg10 mi
7:15 PM30 °FClear.7 mph51%30.03 "Hg10 mi
6:55 PM30 °FClear.6 mph47%30.03 "Hg10 mi
6:35 PM30 °FClear.6 mph47%30.02 "Hg10 mi
6:15 PM34 °FClear.6 mph41%30.02 "Hg10 mi
5:55 PM34 °FClear.No wind38%30.02 "Hg10 mi
5:35 PM36 °FClear.9 mph35%30.01 "Hg10 mi
5:15 PM36 °FClear.9 mph35%30.01 "Hg10 mi
4:55 PM37 °FClear.9 mph33%30.01 "Hg10 mi
4:35 PM39 °FClear.7 mph30%30.01 "Hg10 mi
4:15 PM41 °FSunny.6 mph31%30.00 "Hg10 mi
3:55 PM43 °FSunny.7 mph29%30.00 "Hg10 mi
3:35 PM46 °FSunny.5 mph29%30.01 "Hg10 mi
3:15 PM46 °FSunny.8 mph29%30.00 "Hg10 mi
2:55 PM46 °FSunny.10 mph32%30.00 "Hg10 mi
2:35 PM48 °FSunny.8 mph29%30.00 "Hg10 mi
2:15 PM48 °FSunny.7 mph29%30.00 "Hg10 mi
1:55 PM46 °FSunny.8 mph34%29.99 "Hg10 mi
1:35 PM46 °FSunny.9 mph37%30.00 "Hg10 mi
1:15 PM46 °FSunny.10 mph37%30.01 "Hg10 mi
12:55 PM45 °FSunny.7 mph39%30.02 "Hg10 mi
12:35 PM45 °FSunny.7 mph42%30.03 "Hg10 mi
12:15 PM43 °FSunny.9 mph53%30.03 "Hg10 mi
11:55 AM43 °FSunny.9 mph53%30.04 "Hg9 mi
11:35 AM43 °FSunny.7 mph57%30.06 "Hg8 mi
11:15 AM41 °FSunny.7 mph61%30.07 "Hg7 mi
10:55 AM39 °FSunny.6 mph61%30.08 "Hg7 mi
10:35 AM37 °FSunny.6 mph70%30.09 "Hg7 mi
10:15 AM36 °FSunny.8 mph70%30.10 "Hg6 mi
9:55 AM34 °FSunny.6 mph75%30.10 "Hg7 mi
9:35 AM32 °FSunny.No wind75%30.11 "Hg9 mi
9:15 AM30 °FSunny.3 mph80%30.10 "Hg10 mi
8:55 AM27 °FSunny.No wind93%30.11 "Hg10 mi
8:35 AM25 °FSunny.3 mph86%30.10 "Hg9 mi
8:15 AM21 °FSunny.5 mph93%30.10 "Hg10 mi
7:55 AM19 °FSunny.7 mph93%30.10 "Hg10 mi
7:35 AM21 °FSunny.No wind86%30.10 "Hg7 mi
7:15 AM21 °FClear.3 mph86%30.10 "Hg6 mi
Weather by CustomWeather, © 2014

See weather overviewHow to use our weather pages